User: anonymous   Login
Location: Unspecified
(0.0000°N, 0.0000°E)
Time: 06:21:07
(UTC+00:00)
Language:

STRAND 1 - Orbit

View from above orbital plane
View from above orbital plane
View from above satellite
View from above satellite

Ground track
Ground track

The orbit data is extracted from the following two-line orbital elements,

1 39090U 13009E   18175.57044552 +.00000024 +00000-0 +23792-4 0  9991
2 39090 098.5213 021.8594 0007984 277.1053 082.9224 14.35030062278865
Epoch (UTC): 24 June 2018 13:41:26
Eccentricity: 0.0007984
inclination: 98.5213°
perigee height: 769 km
apogee height: 780 km
right ascension of ascending node: 21.8594°
argument of perigee: 277.1053°
revolutions per day: 14.35030062
mean anomaly at epoch: 82.9224°
orbit number at epoch: 27886

The dashed part of the orbit path shows where the satellite is in the earth's shadow,  

DLR